Retour au catalogue

HAWK-6B

ActifScienceVLEO
NORAD 55324·PAYLOAD·🇺🇸 United States

Lancé Jan 24, 2023 depuis Wallops Flight Facility

Loading…

Prochains Passages (prochaines 24 heures)

TLE

FraisSource: Space-Track

Époque: Sep 14, 2026, 03:35 UTC

1 55324U 23011A   26257.14987851  .00003781  00000-0  16269-3 0  9997
2 55324  40.4974 192.9057 0003471 290.1086  69.9350 15.23595377201410

Suivez HAWK-6B en temps réel avec AllMySat

Download on the App Store